Orbital Elements at Epoch 2459200.5 (2020-Dec-17.0) TDB
Reference: JPL 18 (heliocentric ecliptic J2000)
Element | Value | Uncertainty (1-sigma) | Units |
e | .2193340609498003 | 4.1915e-08 | |
a | 2.384798128255271 | 9.2665e-09 | au |
q | 1.861730670239559 | 9.7557e-08 | au |
i | 3.979555400333723 | 4.9301e-06 | deg |
node | 179.2939569320586 | 4.7073e-05 | deg |
peri | 14.70032669781146 | 4.7769e-05 | deg |
M | 174.8921275993029 | 8.0575e-06 | deg |
tp | 2458547.002966591902 (2019-Mar-04.50296659) | 2.8898e-05 | TDB |
period | 1345.165933174073 3.68 | 7.8403e-06 2.147e-08 | d yr |
n | .2676249755675412 | 1.5599e-09 | deg/d |
Q | 2.907865586270982 | 1.1299e-08 | au |
|
| | Orbit Determination Parameters
Additional Information
|